Theta_e
316 316 316 316 317 317 318 318 318 319 319 320 320 320 320 320 321 321 321 322 322 322 322 322 322 323 323 323 323 323 323 322 320 320 320 321 321 320 320 320 320 322 322 323 326 328 328 325 322 320 324 329 334 337 338 343 345 343 345 345 343 344 339 338 338 336 340 342 342 343 344 345 345 347 347 346 347 346 347 345 346 347 344 344 343 343 345 345
315 316 316 316 316 316 317 317 318 318 319 319 320 320 320 320 320 321 321 322 322 322 322 322 323 323 323 323 323 323 323 322 320 320 321 320 321 320 319 320 319 321 322 322 322 323 325 323 321 321 325 330 333 336 338 342 341 339 344 347 349 349 340 336 336 334 338 342 341 342 344 344 345 347 346 346 346 346 348 348 348 349 348 347 343 343 345 344
313 314 314 315 315 316 316 317 318 318 319 319 320 320 320 320 320 320 321 322 322 322 322 322 323 323 322 323 323 323 323 322 320 320 320 320 320 320 319 320 320 320 321 322 322 321 323 321 322 325 327 330 333 337 338 340 341 339 341 349 356 348 337 336 334 335 339 340 341 343 344 344 346 346 344 345 345 347 349 349 349 350 351 348 343 344 345 344
311 312 312 313 314 314 315 315 316 317 318 319 319 320 320 320 321 321 321 321 322 322 322 322 323 323 323 323 322 323 323 321 319 320 322 322 323 323 321 322 321 320 321 322 322 322 323 322 324 327 329 331 331 334 336 338 340 339 340 350 352 341 338 338 334 336 339 340 342 342 344 345 346 345 343 344 347 348 346 346 347 348 350 347 344 345 345 345
309 310 311 311 312 313 314 315 316 317 317 318 319 320 320 320 321 321 321 321 322 322 322 322 323 323 323 323 322 323 322 320 320 322 324 325 324 325 324 324 323 321 320 322 322 323 323 323 324 324 328 331 331 332 333 335 338 338 339 343 340 336 339 338 334 337 337 339 342 342 345 346 346 345 343 344 348 348 344 344 344 343 346 345 344 344 345 346
309 309 310 310 311 312 312 313 315 316 316 317 318 319 320 320 321 321 322 322 322 322 322 323 322 323 323 323 323 323 321 320 322 323 321 321 322 324 324 323 324 322 320 322 322 323 325 323 323 324 328 331 331 332 333 333 335 337 336 336 336 337 338 337 335 337 338 340 342 342 345 346 345 345 344 343 344 344 340 342 344 342 342 343 343 345 345 345
308 309 309 309 310 311 311 312 313 314 316 317 318 319 320 320 321 321 322 322 322 322 322 323 322 322 322 322 322 322 321 321 322 320 320 320 320 322 323 323 323 321 320 322 323 324 325 324 322 324 329 332 331 331 332 331 331 335 335 333 336 337 337 337 336 336 338 341 341 342 345 345 346 346 344 343 343 344 343 343 344 343 343 343 344 345 345 345
308 308 308 309 309 310 310 311 311 312 314 316 318 319 319 320 321 321 322 322 322 322 323 323 323 322 322 321 321 321 321 322 321 321 322 323 321 321 324 322 322 321 320 321 323 324 325 324 323 324 330 334 331 330 331 329 329 332 333 331 332 336 337 338 337 337 339 340 341 344 345 345 345 346 344 344 344 343 345 345 345 344 344 344 345 345 346 346
308 308 308 309 309 309 310 310 311 312 313 314 317 318 319 320 320 321 322 322 322 322 323 323 322 322 322 321 321 321 323 323 321 322 326 326 323 323 323 321 321 321 320 321 322 324 324 324 324 327 331 332 330 330 328 328 329 329 331 331 331 335 337 338 337 337 339 339 341 344 345 344 344 345 344 344 344 344 346 346 345 344 345 346 345 345 346 345
308 308 309 309 309 309 309 310 310 310 311 312 315 317 318 319 320 321 322 322 322 322 323 323 323 322 322 322 321 322 324 323 321 322 325 325 325 325 322 320 320 320 319 320 321 323 324 323 325 328 330 330 330 330 327 327 329 328 331 333 334 337 337 338 337 337 339 339 341 344 345 344 343 346 348 346 345 346 347 348 346 344 344 347 346 345 346 345
308 308 308 308 309 309 309 310 310 310 311 311 312 314 316 318 320 321 321 322 322 322 322 323 322 322 324 324 321 323 324 324 324 323 322 324 325 325 322 319 319 320 319 320 321 324 323 322 326 329 330 330 329 328 327 326 327 330 336 339 338 339 338 339 339 340 341 341 341 343 345 344 344 348 349 347 346 347 347 348 349 347 346 348 348 347 347 346
307 307 308 308 308 309 309 310 310 310 310 311 311 312 313 316 319 320 321 322 322 322 323 322 322 325 327 324 323 325 325 326 327 324 322 324 325 326 324 320 319 319 319 320 323 323 322 326 329 329 329 330 329 328 327 326 329 333 339 343 342 342 342 341 342 342 342 344 343 343 347 347 347 349 348 347 347 348 348 349 350 349 349 350 350 349 349 348
308 308 308 308 308 308 309 309 310 310 310 311 311 311 312 313 316 319 320 321 322 322 322 323 324 327 327 324 325 326 327 327 326 324 322 324 326 326 326 323 320 319 319 320 322 322 321 325 326 327 327 328 328 327 327 329 334 339 339 343 346 345 345 343 343 344 344 346 344 343 348 350 351 347 346 348 349 348 350 350 351 351 351 351 352 351 350 350
307 308 308 308 309 309 309 309 309 310 310 310 311 312 311 312 314 316 319 319 320 322 323 324 326 328 326 326 327 327 327 325 324 322 321 323 327 327 326 325 323 322 321 321 321 321 321 322 322 323 325 326 327 326 329 333 337 342 340 342 347 342 343 344 342 345 347 346 344 345 350 352 353 348 346 350 349 349 350 350 351 351 351 352 352 352 351 350
307 307 308 308 309 309 310 309 310 310 310 310 311 311 311 312 313 314 316 318 321 323 325 326 327 327 326 327 327 326 326 324 324 325 323 323 327 328 326 326 325 324 323 322 321 320 320 321 322 323 324 325 326 327 335 338 339 342 340 340 344 340 342 345 341 344 348 347 344 343 350 354 353 347 346 350 350 350 350 350 351 351 351 352 352 353 351 349
306 307 307 308 308 309 309 310 310 310 310 310 311 311 312 312 312 313 316 319 322 323 323 324 325 326 327 328 326 325 325 326 327 328 326 325 327 329 328 326 325 325 323 322 321 321 321 322 323 324 324 324 328 334 340 338 337 342 342 338 339 340 342 344 342 342 344 348 344 343 352 358 354 347 346 350 350 350 351 351 352 351 352 352 352 352 352 350
306 306 307 307 308 308 309 309 310 311 311 311 311 311 312 311 312 314 318 321 323 322 321 322 323 324 326 326 325 325 326 327 327 327 326 327 327 327 327 325 326 325 322 321 321 321 323 324 324 324 324 325 329 335 334 330 333 338 340 339 337 339 341 342 344 341 341 346 346 348 358 359 353 347 345 349 351 350 351 351 351 351 351 352 352 352 352 351
307 307 307 307 307 308 308 309 309 310 311 311 311 311 311 312 314 317 321 323 323 321 322 324 324 324 324 324 324 325 325 326 326 326 326 327 327 327 327 326 326 324 321 321 322 322 323 322 323 326 326 325 328 331 328 328 335 335 335 337 335 336 340 341 343 342 342 346 347 349 356 356 350 346 345 348 350 349 350 350 350 351 351 352 352 352 352 351
307 307 307 307 307 308 308 308 309 309 311 311 311 311 312 313 315 319 322 323 320 320 323 325 325 325 324 323 323 323 323 324 325 325 326 327 328 329 328 327 325 322 320 322 323 321 322 321 322 324 325 326 327 329 329 332 340 338 335 337 334 335 338 341 343 342 342 346 348 348 351 355 351 347 346 347 348 349 348 349 349 349 350 351 351 351 351 351
306 307 307 307 307 308 308 308 308 309 310 310 311 311 312 314 317 319 319 318 318 319 320 321 322 321 321 321 320 321 321 322 324 325 326 326 328 328 327 326 322 319 320 323 323 320 322 323 323 323 324 327 329 329 331 333 339 339 334 335 335 334 337 340 341 341 342 345 346 347 349 353 350 347 346 346 347 347 346 347 347 347 348 349 350 351 351 351
305 306 306 307 308 308 308 308 308 309 309 310 310 310 312 313 317 317 315 316 317 318 318 319 319 319 320 320 320 321 321 322 323 324 325 324 327 327 327 324 320 319 320 320 321 321 322 322 323 324 325 329 330 329 331 331 335 337 333 332 332 331 336 340 340 341 342 344 345 348 352 352 350 348 346 345 346 346 346 346 345 346 346 347 348 349 351 351
304 305 306 306 307 308 308 308 308 308 309 310 309 309 312 313 314 312 312 315 316 316 318 318 318 319 320 321 320 320 321 323 323 322 324 324 325 327 325 323 320 321 321 318 321 322 321 321 322 324 323 326 330 328 330 332 332 333 332 331 329 331 335 336 341 344 340 343 347 348 350 349 348 348 346 345 346 345 345 346 345 345 345 345 347 347 349 349
304 304 305 306 307 308 308 308 308 309 310 310 309 309 312 314 314 311 310 314 316 316 318 319 319 319 320 320 320 321 321 323 323 322 323 324 326 327 324 324 321 322 321 320 322 322 321 322 322 321 322 326 330 329 331 332 330 330 333 332 330 334 333 330 337 343 342 343 347 349 352 351 349 350 348 345 346 346 345 346 345 345 345 345 346 347 347 347
303 303 304 305 306 307 308 307 308 309 309 309 309 310 312 313 314 312 311 315 317 318 319 319 320 320 321 321 320 321 322 322 323 322 322 323 326 326 324 324 323 321 321 321 322 321 322 323 321 321 325 327 329 331 331 330 329 330 332 332 333 336 333 332 337 341 342 341 343 349 350 351 351 350 351 347 345 346 345 345 345 344 345 346 345 345 346 347
303 303 303 304 305 307 307 307 308 308 308 309 309 311 313 312 314 312 313 318 320 320 321 321 321 321 321 322 321 322 323 323 323 322 321 324 325 326 324 323 323 322 321 321 320 321 322 321 320 323 327 326 328 331 330 330 330 327 329 332 336 339 337 339 340 339 339 337 342 346 340 346 355 350 350 349 346 347 346 344 345 345 344 345 345 345 345 346
302 302 303 303 304 306 306 307 308 307 307 309 310 310 311 312 313 312 316 324 325 323 324 322 322 323 323 323 323 322 324 325 324 322 321 324 325 326 324 322 323 324 321 321 321 321 321 320 322 326 326 326 328 329 329 331 329 327 330 332 334 338 337 339 340 339 337 336 342 343 338 345 354 348 347 349 348 347 346 344 344 345 345 345 345 346 345 345
302 302 302 303 303 304 306 306 307 307 307 308 309 309 309 311 312 312 318 325 325 324 326 325 323 324 323 323 324 323 324 325 325 325 323 324 326 326 327 324 322 321 319 320 320 321 322 322 323 325 326 326 326 326 329 330 329 330 333 331 331 335 338 339 338 336 339 341 341 343 341 340 343 345 346 347 348 348 347 345 344 344 344 346 346 346 346 346
302 302 302 303 303 303 304 305 306 307 307 308 309 308 309 310 311 316 321 322 324 326 327 326 323 323 323 324 324 324 324 324 325 326 325 325 326 325 326 325 322 323 320 320 320 321 322 322 323 325 325 325 326 328 331 328 331 336 334 329 329 331 335 339 336 335 339 339 337 342 342 335 340 350 348 345 348 348 347 346 343 343 343 345 346 346 347 346
302 302 303 303 303 303 304 304 306 307 307 309 309 308 309 309 312 321 323 320 322 325 324 324 323 321 323 324 324 324 323 324 325 325 325 326 326 324 325 323 322 323 321 320 323 323 322 322 321 323 324 325 330 333 330 328 332 333 328 328 331 332 335 336 336 337 336 335 335 339 339 333 340 352 347 343 347 346 346 345 342 342 342 344 345 346 347 347
302 302 303 303 303 304 304 305 306 307 307 308 308 308 308 312 319 324 323 321 321 323 321 323 323 321 323 325 325 324 322 324 325 324 324 325 326 325 324 322 321 323 321 319 322 322 321 322 322 323 322 323 329 329 325 328 330 327 327 329 331 336 342 346 347 342 334 334 335 336 337 333 336 346 346 343 346 346 344 345 343 341 341 341 344 345 346 347
303 303 303 303 303 303 304 306 307 306 307 306 307 308 310 319 326 326 325 322 320 322 323 324 323 322 323 324 325 325 324 324 324 324 325 325 324 323 322 322 321 321 321 319 320 321 319 320 324 324 322 322 325 325 323 326 327 326 333 332 327 333 338 340 341 336 330 335 338 336 337 334 332 341 346 343 344 345 344 344 344 342 340 341 342 343 345 346
303 303 303 303 303 304 304 305 306 306 306 307 306 309 314 319 321 323 325 323 319 323 324 323 323 322 322 323 325 326 326 325 324 324 326 325 323 323 322 325 324 319 320 320 319 321 320 320 323 322 322 323 323 324 323 324 325 328 334 330 324 327 326 325 331 332 330 334 337 335 336 335 334 339 342 342 342 342 342 342 342 341 340 340 341 342 343 345
303 303 304 304 303 304 305 305 306 306 306 307 305 312 322 321 319 321 322 320 320 323 322 321 322 322 321 322 324 326 326 326 325 324 325 324 323 323 322 325 325 321 323 323 317 317 318 320 321 320 322 324 324 323 322 324 326 325 329 326 323 324 321 322 329 330 330 332 332 333 336 337 337 342 344 342 339 339 339 340 340 340 340 340 340 341 342 344
303 303 303 304 304 305 305 305 306 306 306 306 306 314 321 320 324 326 320 319 321 321 321 321 323 322 321 321 323 324 325 326 327 324 324 324 322 323 323 322 322 322 326 322 317 316 316 318 322 321 321 324 324 323 325 329 328 325 331 330 325 327 324 323 328 328 327 330 327 330 339 339 335 342 346 341 335 335 337 339 339 339 339 340 340 341 341 342
303 303 303 305 305 305 307 307 308 308 306 306 309 314 316 316 320 324 324 324 323 323 322 321 322 322 323 325 325 323 323 325 327 324 324 324 323 323 324 321 321 322 323 320 319 319 315 316 325 323 320 322 325 324 326 331 326 324 331 328 324 330 330 325 329 335 332 329 327 330 341 345 340 339 346 346 342 338 334 337 338 338 338 339 339 341 341 342
303 303 304 305 305 307 310 311 314 315 308 306 310 312 313 315 317 321 326 325 321 321 322 321 322 322 322 326 328 324 321 323 326 323 323 324 323 323 324 322 321 321 322 322 322 321 315 318 327 324 321 324 324 325 326 326 325 324 325 324 325 330 331 327 326 330 327 324 329 332 334 338 336 338 348 352 351 345 339 337 336 336 337 338 339 340 341 342
303 303 304 305 307 310 311 311 315 317 310 305 309 312 313 313 316 321 324 321 318 319 320 320 322 321 319 322 326 325 321 322 324 323 324 323 321 323 323 323 321 320 321 322 324 324 319 321 328 324 322 323 322 324 326 324 327 327 322 325 328 325 332 336 327 325 324 323 329 329 328 329 329 339 356 352 346 350 350 344 336 335 336 336 338 340 340 343
302 303 304 310 312 313 313 315 317 315 309 305 309 316 318 312 312 317 318 316 317 317 318 319 321 321 320 320 323 324 320 320 323 324 325 324 322 323 323 323 322 320 321 321 323 325 321 320 328 327 323 324 322 321 322 322 324 326 325 327 327 323 327 332 326 325 325 325 329 328 328 331 330 340 354 348 344 350 351 347 341 338 337 336 338 339 339 342
302 303 307 313 314 312 314 316 315 310 307 306 308 313 318 314 312 314 314 314 315 315 317 319 320 320 321 321 322 322 320 320 322 322 322 323 324 324 322 323 323 320 319 320 322 326 323 319 324 328 324 323 324 320 318 319 321 324 325 324 326 327 327 326 327 327 325 327 332 328 325 331 336 341 346 345 347 347 346 350 346 338 336 335 337 339 339 341
302 303 310 315 314 313 312 312 311 309 308 309 308 310 314 314 313 314 313 314 315 314 317 319 320 320 321 322 321 321 321 322 322 321 322 323 323 323 323 322 323 321 319 320 322 325 324 319 320 327 325 320 322 322 318 319 321 322 323 322 323 325 326 326 327 329 329 331 335 329 325 335 345 343 343 343 347 345 346 352 347 337 335 336 336 338 339 340
303 305 312 317 315 315 313 311 313 311 312 315 312 311 313 313 313 314 312 314 314 314 316 317 319 319 318 319 320 321 321 322 322 322 323 323 322 323 324 321 322 322 319 320 321 321 324 323 320 322 321 318 322 327 324 322 323 324 323 323 324 324 325 323 322 327 329 329 334 332 325 333 345 342 340 341 346 346 344 346 345 337 335 336 337 338 339 340
303 306 311 312 310 312 312 313 318 316 316 319 314 313 315 314 315 315 312 313 314 313 314 316 317 317 317 317 318 320 321 321 323 322 322 324 323 324 325 322 321 322 320 321 320 321 328 330 322 318 321 323 325 327 325 322 324 325 323 325 326 327 325 320 320 327 327 324 331 330 322 333 353 348 340 339 342 341 337 338 340 337 335 337 337 338 339 340
304 306 307 308 309 311 311 314 321 321 319 318 316 316 317 316 316 316 314 314 315 314 314 315 316 316 317 317 318 320 321 321 322 323 323 325 325 323 323 322 321 321 321 321 321 323 328 328 321 318 322 325 324 325 325 324 324 323 323 325 324 324 325 323 328 334 329 325 328 325 322 342 370 362 348 342 338 337 336 336 337 336 336 338 337 338 339 339
305 306 309 311 313 313 313 315 320 324 323 319 317 319 318 317 318 317 317 317 316 315 316 316 317 316 316 318 319 321 323 321 322 323 322 324 325 323 324 324 323 322 321 322 324 324 323 326 324 319 319 320 321 323 322 322 324 324 326 327 324 326 326 326 333 332 325 327 329 324 325 344 366 365 352 347 343 342 339 336 337 336 337 338 338 339 339 339
307 310 312 312 314 314 314 313 315 319 321 318 318 319 317 318 319 319 319 319 317 318 318 318 319 318 317 319 320 323 323 321 322 324 325 326 326 327 327 327 327 324 319 323 326 322 323 329 325 318 318 318 318 320 322 324 326 327 330 326 324 327 325 325 329 324 322 329 330 329 333 342 353 353 348 349 350 347 342 337 337 338 337 339 339 339 339 340
309 313 314 313 313 313 312 311 311 314 316 316 319 320 318 318 319 318 318 319 319 319 318 319 319 318 318 319 319 321 322 321 322 325 329 328 329 332 330 328 330 326 325 330 329 327 332 333 326 321 321 320 320 325 333 335 328 323 326 325 325 326 324 329 330 324 328 333 330 340 347 335 336 344 345 351 350 346 346 341 336 338 338 338 340 339 340 340
309 313 314 313 315 314 312 311 311 312 314 315 319 320 317 317 318 318 318 319 319 318 318 319 319 319 320 320 319 321 321 322 324 325 326 328 334 337 329 328 331 329 333 337 330 331 336 328 324 327 325 322 324 328 334 335 326 322 326 325 325 326 324 327 326 326 337 331 325 349 359 333 331 346 347 355 354 347 348 342 336 339 340 339 340 340 339 340
312 313 312 312 314 315 314 313 311 312 313 314 318 319 317 317 318 318 319 318 317 317 318 321 321 320 321 320 320 321 323 325 326 325 327 333 339 338 331 331 332 327 333 336 330 334 335 325 323 326 324 324 325 324 329 332 328 327 329 325 325 326 324 323 324 330 338 328 323 347 359 338 335 345 344 350 353 348 344 339 336 339 339 339 340 339 339 341
310 311 310 310 312 312 312 312 312 313 313 314 319 321 318 318 319 318 317 316 316 317 318 322 323 321 321 322 322 323 325 326 325 327 333 336 336 335 334 335 332 328 331 334 334 333 329 331 334 326 320 324 323 322 327 328 327 328 328 328 327 325 324 324 325 330 334 330 329 345 353 342 336 341 343 341 338 336 335 335 336 338 338 338 339 339 340 341
306 307 308 309 310 310 311 311 312 313 312 314 321 321 316 317 318 316 314 315 318 318 317 320 322 321 320 322 322 323 326 329 327 329 337 337 334 339 341 337 333 331 330 332 335 330 324 335 342 328 320 323 322 324 326 324 325 325 324 328 328 324 325 324 323 329 331 330 332 339 343 342 338 343 343 332 328 333 335 334 335 337 338 338 338 339 340 341
304 306 307 308 309 310 312 311 310 311 312 315 319 315 311 314 315 313 313 315 315 317 317 318 320 319 318 321 324 324 324 325 325 326 331 331 330 335 339 334 330 331 333 333 334 331 328 334 338 327 320 322 323 324 324 322 323 321 320 325 325 323 326 323 325 333 333 331 334 335 334 336 339 345 341 331 332 338 336 332 332 334 337 338 338 340 341 341
303 305 306 307 309 310 310 310 309 310 313 315 314 311 310 311 311 312 315 316 314 315 316 316 316 317 319 322 326 322 318 320 322 321 323 325 326 327 328 329 328 328 333 335 334 336 334 331 333 329 322 322 324 323 323 323 319 319 321 323 322 325 327 324 329 337 335 333 335 332 329 334 340 342 340 338 341 341 336 332 331 333 336 337 339 340 340 340
Wind_Speed
16 16 16 16 16 16 16 16 16 16 16 16 17 17 18 19 19 19 19 18 18 19 20 21 22 21 22 23 23 22 21 20 19 22 27 25 19 17 17 13 12 13 16 19 20 19 17 14 10 9 9 9 9 8 9 12 11 8 3 1 2 4 5 7 9 7 7 7 11 15 16 15 10 11 14 11 15 21 14 10 14 4 7 20 19 28 32 27
16 16 17 17 17 17 17 16 17 17 17 17 17 17 18 19 20 20 20 19 18 18 19 20 21 22 22 22 23 24 23 22 22 26 27 21 18 18 17 14 15 18 19 21 23 21 19 16 12 12 13 11 8 7 8 11 14 8 3 2 4 5 4 6 11 10 10 13 14 15 18 15 12 18 19 12 12 15 11 10 12 11 16 17 22 32 29 28
16 17 17 17 17 17 17 17 17 17 18 17 18 17 17 18 19 20 21 20 19 19 18 19 21 22 22 22 23 24 24 24 25 25 19 14 15 16 16 16 17 21 22 22 22 20 17 14 11 12 14 10 9 10 8 8 11 8 4 2 5 6 4 6 16 16 17 21 16 15 16 11 13 20 18 13 13 11 10 13 15 17 20 21 29 32 29 31
17 17 17 18 18 18 18 18 18 18 19 18 18 18 18 18 19 20 21 21 21 20 19 19 20 21 21 23 23 23 23 22 19 13 5 3 6 7 9 13 17 21 24 23 21 18 14 14 14 14 12 8 9 10 7 8 9 6 6 4 5 7 4 8 21 21 21 27 22 19 15 10 14 18 19 20 12 3 11 22 25 24 27 30 34 32 32 32
17 17 18 18 19 19 19 19 19 19 20 19 19 19 19 18 18 20 21 22 21 21 21 20 21 21 21 22 23 22 19 13 4 3 3 3 6 7 7 9 14 20 24 24 22 18 15 17 15 13 10 6 6 6 6 11 10 4 6 9 7 8 5 11 24 24 23 25 23 20 14 14 18 16 23 26 11 9 20 28 28 29 32 35 36 34 32 32
18 18 18 19 19 19 19 20 20 20 20 20 20 20 20 19 19 19 20 22 21 22 22 21 22 21 22 22 23 22 12 5 5 1 9 14 12 12 10 10 13 18 25 26 22 19 17 16 14 11 9 3 5 6 4 10 10 4 5 8 10 10 7 15 25 25 26 25 21 20 18 20 18 11 24 27 9 11 25 28 28 29 34 36 35 34 33 33
19 19 19 19 20 20 20 20 20 20 21 21 21 21 21 20 20 19 20 21 22 23 22 22 23 22 23 22 22 19 11 16 16 11 17 16 12 13 12 13 13 18 26 29 25 21 19 16 14 12 7 2 5 6 5 7 9 6 4 5 12 15 12 22 28 28 32 30 26 25 22 22 18 11 21 22 4 6 19 25 28 31 34 35 35 34 34 33
20 20 20 20 20 21 21 21 21 21 21 22 22 22 22 21 21 21 20 20 22 23 23 23 24 24 24 22 19 16 16 21 17 12 14 12 11 12 12 13 13 19 27 30 28 23 19 16 16 13 6 3 5 5 4 4 5 5 5 4 8 14 18 28 30 30 31 28 28 26 21 21 20 17 20 15 3 6 20 24 28 33 35 35 35 34 33 32
22 21 21 21 21 21 21 21 22 22 22 22 23 23 23 23 22 22 21 21 22 23 24 24 25 26 25 21 14 11 18 19 12 10 11 9 9 10 10 12 14 21 28 30 27 22 18 16 17 13 6 5 6 4 3 2 3 6 8 6 7 12 21 29 27 28 27 23 26 21 13 14 15 14 12 8 7 14 22 25 31 35 36 36 35 34 33 32
23 22 22 22 21 21 22 22 22 22 23 23 23 23 23 24 23 23 22 22 23 23 25 25 26 27 23 19 8 6 15 16 13 13 11 8 7 6 6 8 14 22 27 28 26 23 18 13 13 12 6 5 7 5 3 4 4 4 3 4 8 13 20 26 24 23 22 21 28 21 8 12 16 12 5 9 15 20 25 28 32 36 36 37 35 35 33 32
22 23 23 23 23 23 22 22 23 23 23 23 23 23 24 25 24 24 23 23 24 24 25 25 27 26 22 16 9 9 16 17 17 17 14 11 6 4 3 4 11 20 25 25 24 22 17 10 11 10 5 4 5 4 4 3 9 1 13 10 8 14 16 20 21 21 19 13 23 22 9 10 15 7 6 18 23 24 29 31 32 35 36 35 35 35 34 32
22 23 23 23 23 24 24 24 24 23 23 23 23 23 23 24 25 24 24 24 24 24 25 26 25 24 19 15 18 17 17 18 19 19 16 12 8 6 3 4 8 15 20 21 19 17 15 12 11 7 3 5 3 1 3 6 5 9 17 9 6 10 9 11 13 19 18 8 21 24 10 4 8 5 9 24 27 27 31 32 32 33 34 34 33 34 34 33
21 22 23 23 24 24 24 24 25 25 24 23 23 22 23 24 24 24 24 23 24 24 25 23 21 20 14 15 22 21 18 19 20 19 16 12 10 8 6 6 6 10 14 15 13 10 11 13 11 6 2 3 2 0 4 4 8 10 7 6 6 7 3 5 7 14 13 12 27 22 4 6 8 5 14 26 29 30 29 29 31 31 31 32 32 34 34 34
21 22 22 23 24 24 24 24 25 26 25 24 23 22 22 22 22 23 23 23 23 21 19 16 14 14 11 17 24 21 18 18 16 16 15 12 11 9 8 8 7 7 9 10 10 9 9 9 9 8 5 4 3 2 4 4 7 6 3 5 4 4 5 5 5 11 8 15 26 12 1 8 6 6 19 28 31 32 29 28 30 30 30 31 31 33 34 34
22 22 22 23 23 24 24 25 26 26 26 25 24 23 23 22 21 21 21 20 18 15 14 12 11 13 14 22 23 13 11 11 7 8 10 12 12 10 9 8 8 7 7 8 10 11 9 7 7 6 4 4 3 1 3 4 4 2 5 3 0 3 5 5 5 10 8 15 18 3 1 5 4 9 21 28 31 32 30 28 30 30 31 31 32 33 34 34
22 23 23 23 23 23 23 24 26 26 26 25 25 24 22 22 21 20 18 16 13 11 11 11 13 12 10 16 14 6 7 4 2 5 4 8 10 10 8 8 8 7 7 8 10 11 10 8 7 5 3 4 4 4 5 4 2 2 2 5 5 4 4 4 4 8 9 12 11 3 3 2 2 12 22 27 30 30 27 27 29 30 31 32 33 33 34 34
24 24 24 24 23 23 23 23 25 26 25 25 25 24 22 22 20 17 15 13 12 12 14 14 14 13 12 15 14 10 8 3 1 8 5 4 9 12 11 11 8 7 9 10 10 11 11 10 7 4 2 3 3 5 6 2 3 3 1 4 4 4 6 5 4 7 7 9 8 3 4 4 3 13 22 26 30 28 24 25 28 29 30 31 32 33 34 35
25 25 25 24 24 23 23 23 25 25 25 24 24 24 23 20 18 15 13 12 12 12 13 12 8 6 10 13 10 10 10 8 11 12 5 3 6 9 12 14 9 6 10 10 8 11 11 8 6 3 1 3 3 5 5 4 6 5 4 4 2 3 6 8 6 9 10 9 8 4 4 5 4 12 20 25 29 27 24 26 28 29 30 30 31 32 34 35
25 25 25 25 24 23 23 23 24 24 24 22 22 23 21 17 14 11 10 11 11 9 8 7 5 4 10 16 18 18 18 19 18 15 9 5 4 6 10 12 9 7 10 6 5 10 10 4 4 4 3 5 6 7 7 8 10 9 7 6 7 6 8 9 5 7 13 10 8 7 5 6 8 12 17 23 28 26 24 26 26 27 29 29 30 32 34 36
25 25 25 25 24 23 22 23 24 23 23 22 21 19 14 11 8 6 10 18 18 15 16 17 17 19 24 30 32 28 25 24 21 18 13 8 4 5 7 8 7 7 7 5 4 8 10 5 3 6 7 8 9 10 8 8 11 10 6 5 7 7 8 7 2 3 10 8 7 7 4 6 11 12 16 23 25 21 21 22 24 26 28 29 31 32 34 37
25 25 26 25 24 23 21 23 24 22 22 19 18 14 6 6 4 5 15 23 23 20 23 27 25 27 31 31 31 28 22 20 22 21 17 14 10 6 4 6 6 3 4 4 3 4 8 7 6 9 10 10 10 9 8 7 9 9 7 5 5 5 5 3 1 3 7 6 5 5 5 6 9 11 14 20 19 19 24 25 25 28 28 30 32 33 35 37
26 26 26 26 25 23 21 23 23 22 19 13 13 10 3 4 3 6 11 15 25 28 28 29 28 31 33 29 29 27 18 13 20 24 19 14 11 7 5 5 5 3 3 2 3 3 5 6 8 9 8 8 6 7 10 8 8 7 5 6 5 4 3 2 2 3 6 4 3 3 5 3 4 7 11 17 19 22 29 29 27 29 28 29 32 34 36 36
25 26 27 26 26 24 21 22 22 19 13 9 12 7 0 1 3 8 9 10 22 29 26 25 26 31 32 28 26 22 16 12 16 24 20 11 9 11 8 5 5 5 3 3 5 5 4 6 7 8 7 8 5 5 9 7 6 6 5 6 4 4 5 5 3 5 4 1 2 5 3 2 2 5 7 16 21 19 23 26 26 29 31 34 36 36 37 36
24 25 26 26 27 24 21 22 20 12 10 12 11 2 1 5 6 12 11 7 11 17 20 19 19 24 25 21 18 16 20 18 17 22 22 14 10 10 8 7 6 4 4 6 6 6 5 6 7 10 7 9 7 5 8 7 4 5 5 6 4 5 8 6 4 6 3 2 2 7 4 4 4 7 7 12 17 16 18 23 24 28 32 35 35 36 38 39
23 24 25 26 27 26 23 19 13 10 14 13 5 1 3 8 10 14 10 3 5 10 12 10 10 13 11 9 10 14 17 17 21 23 21 18 15 8 5 7 7 4 6 7 5 5 7 5 8 11 7 8 7 5 7 8 6 4 6 7 9 9 8 6 10 9 4 2 3 5 2 5 4 9 10 8 11 13 15 19 23 28 31 31 32 35 38 39
23 23 25 25 27 28 24 15 11 15 16 8 1 3 7 9 12 13 6 2 4 6 3 3 4 3 3 4 10 10 6 10 19 23 19 17 17 12 5 4 4 4 6 6 3 3 6 5 8 9 8 9 7 5 7 8 7 4 6 9 10 10 8 10 13 10 5 4 5 6 5 4 4 7 11 9 10 13 13 14 21 29 31 31 33 36 38 39
23 23 24 25 25 28 26 18 16 18 14 5 5 7 8 9 10 8 3 3 4 4 1 2 3 2 3 5 13 11 1 5 10 17 22 19 17 16 10 4 3 3 5 5 2 3 4 6 6 6 7 8 7 6 6 8 8 3 6 10 11 9 10 12 12 8 5 3 2 5 4 1 4 6 9 11 10 11 12 13 17 26 31 33 36 38 39 41
23 22 23 25 23 25 26 23 20 17 12 8 7 6 8 9 6 2 3 2 4 2 0 3 3 4 4 5 18 15 3 2 4 11 22 21 17 15 9 6 7 5 5 6 5 5 4 8 8 8 6 5 6 6 7 10 6 5 6 10 10 9 10 11 10 7 4 5 1 4 3 2 6 6 3 10 11 12 16 18 18 23 32 34 37 40 41 43
24 21 23 25 24 22 24 24 19 14 11 8 5 7 9 7 3 1 4 1 4 2 1 2 4 4 1 6 16 15 6 3 2 8 19 21 19 13 6 9 10 7 6 7 6 5 3 8 10 9 6 5 6 5 9 12 5 5 7 8 6 5 5 7 7 4 4 4 6 7 6 5 5 4 3 7 10 14 17 17 18 25 33 35 38 42 43 43
25 22 22 25 25 23 24 22 16 12 12 10 9 10 8 2 2 3 2 2 3 3 2 1 3 2 2 4 5 10 6 6 4 6 14 15 19 15 6 10 10 6 3 3 5 6 5 5 6 7 7 8 7 4 8 13 8 6 8 7 7 6 4 2 1 3 5 1 6 9 11 9 5 4 5 7 11 17 17 14 16 22 29 36 39 42 43 43
26 23 22 24 26 25 25 21 15 13 13 11 11 8 3 2 3 3 4 3 3 4 1 1 1 2 3 2 2 6 5 6 4 5 6 6 11 9 3 5 5 3 3 3 2 4 5 4 3 4 7 9 7 3 5 8 6 7 5 5 4 2 4 4 5 3 3 4 7 9 10 8 7 6 6 11 16 17 17 15 15 19 28 37 41 43 44 43
27 24 22 23 24 25 25 21 18 17 14 10 10 6 1 2 0 3 4 3 2 2 1 1 3 3 3 2 1 4 4 4 3 3 4 4 5 6 5 5 5 4 4 4 2 4 4 5 5 4 5 8 8 4 3 3 1 5 5 6 5 1 1 1 1 0 3 6 6 6 8 4 8 9 8 12 14 13 16 19 20 21 29 38 42 43 42 42
28 26 25 22 23 25 22 18 18 19 15 11 9 4 3 2 4 6 4 3 2 1 1 2 4 4 3 3 2 4 2 4 5 2 4 5 4 6 6 4 7 7 3 3 4 3 3 5 5 4 5 6 9 6 4 2 2 5 6 6 5 3 2 3 3 0 2 5 4 5 9 4 5 7 10 14 17 19 24 27 27 24 29 38 42 42 42 42
29 28 27 23 21 22 18 16 18 17 14 11 6 1 3 3 5 5 6 6 4 3 2 1 5 7 2 1 3 2 1 3 4 4 3 4 4 5 4 3 6 6 4 3 4 4 4 5 6 7 4 5 8 7 7 6 6 6 5 6 6 5 5 4 3 3 4 3 2 3 6 5 3 4 8 12 17 22 26 28 25 20 21 29 34 35 38 41
30 28 26 24 20 17 14 13 14 13 12 9 4 2 5 5 3 2 4 5 3 4 5 4 5 5 4 3 3 1 1 3 1 4 4 4 5 5 5 5 6 5 5 4 3 3 5 7 6 6 5 6 6 6 8 8 5 5 3 6 5 7 6 2 4 6 5 2 1 2 3 5 5 6 7 4 7 13 19 21 21 19 17 21 27 32 36 39
31 28 24 21 16 12 10 11 10 11 13 12 6 3 6 4 3 4 3 2 1 2 5 6 2 0 3 4 3 3 3 3 2 1 2 4 5 6 6 5 7 8 7 6 3 2 4 6 6 4 5 6 8 7 7 8 6 2 3 4 5 6 7 3 3 2 3 2 2 2 3 4 2 6 7 3 5 8 9 13 18 20 18 22 28 34 36 39
32 30 25 17 13 12 10 11 11 11 17 14 5 5 5 3 5 5 2 0 1 1 2 3 1 1 2 2 3 3 4 4 3 2 2 3 3 5 6 5 6 11 10 9 5 2 4 5 6 6 8 9 11 10 5 7 8 6 4 7 3 3 4 3 2 1 2 3 4 2 5 4 1 3 6 3 6 10 8 9 12 14 18 24 30 35 38 41
34 31 21 13 14 15 12 12 10 15 18 10 5 5 3 4 5 4 4 2 1 2 2 1 3 2 1 1 3 2 4 4 3 2 1 3 3 5 7 5 6 11 14 12 6 3 5 4 7 7 9 7 7 8 6 7 6 4 4 7 5 3 2 1 3 2 1 3 4 3 3 4 4 4 5 4 10 13 11 8 7 10 18 26 31 35 38 40
31 24 12 10 13 13 8 6 11 19 14 5 5 5 4 5 5 5 7 4 1 2 1 4 4 2 2 2 3 2 1 2 3 1 1 2 3 4 6 5 6 10 14 13 7 3 5 4 5 5 6 3 4 6 8 9 4 2 3 4 2 3 5 3 3 4 4 4 3 3 3 3 6 6 7 10 13 13 11 9 9 12 21 29 30 33 37 39
25 15 5 5 9 14 14 4 13 14 6 3 6 4 2 4 5 9 10 5 2 3 2 3 3 2 3 2 4 3 1 3 3 2 2 3 3 4 5 6 3 6 12 14 9 5 3 4 5 4 2 2 3 6 10 11 6 3 4 5 2 1 3 2 2 4 4 4 4 3 3 5 7 6 9 13 13 12 12 11 10 14 23 30 31 33 37 40
21 7 3 6 6 10 16 6 7 5 1 3 4 3 3 3 3 7 9 7 4 5 5 4 3 3 3 3 3 2 2 3 4 3 3 4 3 3 5 9 6 4 6 8 8 6 3 3 5 4 2 4 7 7 9 10 9 8 6 6 6 4 4 3 4 1 2 3 5 5 4 6 7 6 10 13 11 10 13 13 12 17 25 30 31 35 39 41
15 3 5 10 15 18 14 5 3 3 2 2 2 2 4 3 2 4 7 5 4 5 6 4 4 4 4 4 4 4 3 3 4 5 4 5 6 4 6 10 10 7 6 6 9 10 6 4 5 6 5 6 9 7 5 7 8 9 7 7 7 6 6 6 6 3 1 1 2 3 3 6 7 6 9 11 9 9 13 14 12 18 26 29 32 36 38 40
12 11 12 9 13 14 6 2 3 2 3 5 5 4 5 4 2 2 3 3 3 3 4 3 4 5 5 5 5 5 5 4 5 7 5 4 5 8 12 15 12 7 5 5 8 8 5 3 5 5 4 5 8 6 2 2 4 5 6 6 8 8 8 7 6 5 4 3 3 2 3 6 6 3 5 7 7 7 13 17 18 18 21 26 31 35 37 38
16 19 13 3 3 4 2 2 3 2 3 5 5 5 7 6 4 4 4 3 3 3 2 3 4 5 5 5 5 6 5 4 4 5 5 4 4 8 14 16 11 5 6 8 8 8 6 3 4 4 3 5 6 6 5 3 3 5 4 5 8 9 9 4 3 4 4 5 7 5 4 6 6 3 2 3 6 6 10 18 22 20 20 26 31 33 35 36
14 14 9 4 4 3 4 1 1 1 2 3 3 4 5 5 6 9 8 5 6 6 3 4 6 6 6 5 5 6 6 5 3 3 4 4 4 8 9 10 7 6 12 19 17 15 8 4 6 7 6 7 7 6 7 5 3 3 3 6 8 9 11 6 3 5 6 5 6 6 5 6 7 5 2 3 6 7 8 14 19 20 21 25 29 32 34 35
7 4 6 7 6 1 2 4 6 2 2 3 3 3 3 3 4 9 8 5 8 9 5 5 6 5 6 6 7 7 7 6 5 4 5 4 4 5 5 11 10 5 11 19 19 13 3 4 8 10 11 10 9 9 7 5 5 5 5 8 9 9 12 9 5 6 7 4 5 6 7 6 7 6 6 6 7 9 9 10 15 20 22 25 29 33 35 36
2 1 2 5 6 3 1 5 8 4 2 2 2 3 3 3 3 5 5 4 5 5 3 4 6 5 6 7 7 7 7 7 7 7 8 6 4 5 9 13 10 4 13 7 17 10 3 4 9 12 15 15 14 13 9 6 7 8 9 10 10 11 12 11 8 8 7 7 6 8 6 8 9 9 10 9 8 7 7 9 17 24 28 29 31 31 32 34
3 4 4 4 4 2 1 5 8 5 4 4 2 3 4 4 3 3 3 3 6 3 2 3 5 7 7 6 5 5 6 6 7 8 8 6 3 4 7 8 6 3 13 2 11 7 3 5 7 9 14 17 17 14 10 8 7 7 9 10 11 11 13 13 13 11 10 8 9 8 9 10 10 10 11 11 11 12 14 19 23 24 26 28 28 29 31 34
3 5 6 5 4 4 7 10 11 7 5 4 3 3 3 3 3 2 3 3 5 4 3 2 5 5 6 6 6 6 6 6 7 8 7 4 1 1 3 5 4 2 8 4 2 2 3 5 5 9 12 15 15 12 9 10 8 7 7 9 9 11 13 14 14 12 13 12 11 9 13 13 10 10 12 13 15 15 14 17 20 20 22 26 28 30 34 37
4 4 6 7 6 8 11 9 7 5 4 4 3 2 3 3 2 4 5 4 3 3 2 3 6 8 8 8 7 9 9 7 9 9 6 5 3 2 1 3 4 4 6 3 1 0 2 5 3 6 7 11 11 10 9 10 11 11 12 10 8 8 9 9 8 6 8 11 9 7 10 11 9 8 9 9 9 9 8 13 19 23 26 28 28 31 35 39
5 4 5 7 6 6 7 6 3 3 3 3 1 2 4 3 3 7 7 8 9 7 3 2 6 8 10 10 7 7 7 5 7 9 5 4 6 3 4 3 1 5 6 2 1 1 2 4 0 5 3 6 7 10 11 10 9 11 14 13 10 7 6 7 6 5 7 8 5 5 6 9 9 6 5 4 6 9 9 13 19 23 27 30 32 36 40 41
6 3 4 5 4 4 4 4 3 2 3 1 3 4 4 6 7 8 6 6 9 10 6 5 7 6 8 9 4 6 15 16 16 18 14 11 12 7 3 3 4 3 4 3 3 1 4 3 1 4 3 6 6 9 9 6 5 7 11 13 13 9 8 6 4 6 9 8 6 6 8 10 7 6 6 6 6 7 11 17 22 25 30 34 37 41 42 40
Wind_Direction
328 329 328 328 328 327 326 326 325 325 326 326 326 327 328 329 328 327 328 328 329 329 330 330 329 329 329 329 326 322 314 303 294 284 274 267 270 273 264 252 232 222 217 214 215 214 212 212 209 210 211 202 213 228 221 214 195 172 154 156 191 199 197 176 179 175 149 152 162 172 164 145 150 141 129 131 128 134 136 144 157 149 163 166 164 162 162 163
325 326 325 326 326 324 324 323 322 323 322 323 324 324 325 326 326 326 326 326 327 328 330 330 329 329 329 329 329 326 319 310 299 284 276 276 274 259 245 236 222 214 212 213 213 214 216 217 210 206 203 197 212 216 211 205 188 179 128 140 213 201 209 190 172 163 152 158 161 167 162 153 152 145 142 137 133 136 120 127 142 131 146 161 163 163 166 166
322 323 323 323 323 322 322 321 321 320 320 321 320 322 323 323 324 323 324 324 325 327 329 330 329 329 329 328 330 328 325 319 304 291 287 280 266 249 240 240 227 212 208 210 213 216 217 214 202 189 190 195 205 200 201 197 188 200 163 148 244 199 199 191 172 173 165 158 151 156 159 154 155 150 148 144 143 148 143 149 149 144 153 162 165 167 169 169
320 321 321 320 320 320 320 320 319 318 318 318 318 319 320 321 321 321 322 322 323 325 327 330 328 328 328 327 329 329 330 326 306 296 302 268 267 252 241 245 235 218 207 206 211 214 204 191 183 178 183 193 200 200 207 196 186 192 168 190 234 181 177 183 175 176 165 158 152 151 154 156 162 156 149 144 138 169 188 179 172 165 164 165 167 171 171 173
320 319 319 318 318 318 318 318 317 317 316 315 316 316 317 319 318 318 319 320 322 323 325 328 326 326 326 326 326 327 335 335 298 120 73 299 280 263 252 252 241 224 208 204 206 201 191 184 180 181 186 191 182 185 225 211 191 175 200 216 205 166 169 178 173 172 165 157 149 149 159 162 163 163 160 154 150 199 199 191 183 174 171 170 170 173 175 176
319 318 317 316 316 317 316 316 315 315 313 313 313 313 315 316 316 317 316 318 320 321 323 325 324 324 324 323 322 322 329 299 234 136 315 297 278 266 265 258 241 223 209 203 201 194 188 183 180 181 178 184 173 175 231 217 199 207 246 231 204 187 168 165 169 167 160 155 153 162 167 159 157 170 173 167 167 203 198 191 182 176 174 172 172 174 178 179
320 318 317 316 315 315 315 315 313 313 312 311 311 311 313 313 314 314 313 316 318 320 321 322 322 320 321 320 318 316 295 275 279 294 301 292 272 262 261 259 240 217 207 202 199 194 191 185 183 180 161 154 185 200 231 216 209 218 251 232 206 203 175 161 166 166 163 164 167 165 159 161 165 173 180 182 208 221 193 185 179 174 172 172 174 178 181 182
322 320 318 316 315 315 314 314 312 312 310 309 309 309 310 310 311 311 312 314 315 318 318 320 320 317 319 316 315 311 287 287 296 300 298 287 269 259 256 257 235 211 207 205 200 193 191 186 184 179 165 176 178 191 206 227 233 214 239 246 202 199 173 162 164 164 166 167 164 158 157 172 176 167 174 190 227 184 180 178 174 170 171 174 177 180 183 186
323 322 321 319 318 316 314 313 312 310 309 308 307 307 308 308 308 308 309 311 312 315 315 318 316 315 315 310 311 304 291 298 304 302 313 301 265 256 258 250 223 207 205 205 200 194 189 184 184 179 178 188 168 181 187 186 227 217 231 230 189 180 163 160 159 162 165 161 156 153 157 174 175 159 162 192 179 170 173 172 171 169 172 176 179 183 186 188
324 323 323 322 320 319 316 315 312 310 308 307 306 306 307 306 305 306 306 308 309 310 312 314 313 313 310 303 298 277 293 306 302 296 313 313 264 251 266 238 214 205 202 202 199 196 190 184 189 185 187 175 164 202 193 160 263 277 199 160 151 150 152 154 151 157 159 159 161 156 147 160 162 156 163 190 175 170 168 166 170 171 174 178 182 186 188 190
325 324 324 323 323 321 320 318 315 312 309 307 306 306 306 304 303 304 304 305 305 307 308 309 311 309 303 292 251 251 295 306 303 296 293 299 279 253 274 227 209 204 203 201 199 199 193 183 178 178 189 171 164 213 210 254 307 342 117 86 92 117 130 145 144 153 151 158 166 149 116 143 159 180 191 174 172 174 169 166 173 174 177 181 183 187 191 194
326 325 324 324 324 323 322 321 317 315 312 310 308 307 306 303 302 302 302 303 303 305 306 308 310 305 300 280 256 271 300 300 298 292 281 284 276 259 244 220 208 205 209 205 201 200 191 181 171 169 182 174 169 229 278 318 336 133 124 89 68 87 107 139 138 154 149 151 157 135 93 155 188 239 181 168 170 172 169 168 174 177 179 183 186 190 193 196
325 325 325 325 324 324 324 321 319 317 316 315 313 311 307 302 301 301 300 301 302 304 305 308 308 303 296 272 274 291 302 293 287 278 271 273 263 251 230 222 214 207 214 212 209 198 188 194 200 221 233 162 170 328 315 359 96 123 110 95 105 75 114 164 137 150 144 149 154 140 110 214 225 234 169 167 167 166 166 169 175 179 182 185 189 193 196 199
324 324 324 323 323 324 324 322 320 318 318 319 317 315 309 304 302 299 300 301 302 304 306 308 306 307 293 276 289 302 297 288 281 270 265 262 251 245 235 226 221 214 216 212 207 198 192 199 211 234 242 206 233 313 342 28 93 115 80 78 107 123 183 209 162 148 132 161 164 147 213 208 236 210 170 170 170 167 167 172 178 181 184 187 192 196 199 201
324 323 322 322 322 322 323 323 320 318 321 322 320 319 313 307 303 300 301 299 300 303 306 306 301 305 297 288 296 304 298 294 294 292 270 251 244 242 237 229 232 229 218 201 197 202 199 190 192 211 221 203 212 348 25 31 36 106 121 107 176 149 183 235 202 167 146 174 185 180 238 213 246 192 175 173 174 171 170 175 180 184 186 190 194 198 202 204
325 324 322 321 322 322 323 321 319 318 321 323 323 322 316 310 306 302 300 294 293 296 301 302 295 301 301 294 295 300 316 318 40 2 306 250 243 239 239 237 238 232 215 196 193 195 188 186 189 195 181 152 140 101 68 55 0 314 120 156 176 145 180 223 219 201 165 168 199 215 165 219 255 185 179 176 177 174 173 177 182 186 190 192 195 199 203 205
327 325 323 323 323 323 324 321 319 317 321 325 324 322 318 313 307 303 295 281 279 290 299 295 288 292 280 275 277 275 289 261 282 333 332 270 245 245 251 248 248 240 208 190 191 188 181 184 182 194 183 119 116 104 87 108 202 264 57 133 172 155 176 184 183 208 180 168 197 177 151 201 194 176 178 181 180 178 177 181 185 189 192 195 198 199 203 206
326 325 323 323 324 325 325 323 319 319 321 325 326 325 322 315 307 301 284 269 279 292 298 288 276 294 275 268 272 269 274 272 291 307 309 282 253 251 257 253 259 233 190 178 188 185 182 188 165 158 121 114 130 115 124 187 187 192 169 141 162 166 190 195 184 187 177 177 194 172 175 199 166 168 179 185 183 181 184 185 189 192 194 198 200 202 204 207
324 324 322 322 324 325 327 324 321 321 323 326 330 327 322 316 307 295 271 267 284 288 285 263 224 248 267 273 277 278 286 290 291 291 287 292 264 266 264 251 245 198 170 158 194 186 171 158 130 153 170 160 167 156 165 189 179 180 180 159 163 182 208 204 197 185 169 173 198 191 193 182 165 174 183 186 186 187 189 188 192 195 197 200 202 206 207 209
324 323 321 321 322 324 327 325 322 324 326 328 333 334 335 335 324 304 294 289 286 280 276 266 255 259 265 272 277 281 288 287 283 279 280 285 269 293 276 229 205 180 167 149 187 187 167 165 182 183 185 176 180 178 168 174 176 173 165 159 170 187 217 211 260 230 166 169 207 186 170 179 177 182 185 185 186 190 193 193 195 197 199 201 204 208 209 212
326 323 320 320 320 322 326 324 322 326 328 331 342 352 18 28 11 325 315 303 294 287 281 279 275 269 269 271 272 277 284 286 281 270 266 273 271 283 250 192 159 177 214 177 151 159 166 189 207 194 190 179 180 174 143 141 166 168 158 156 176 198 222 214 281 244 174 172 214 160 150 201 193 185 184 182 185 195 197 195 198 198 200 203 206 210 213 216
327 323 321 320 319 321 325 323 323 327 328 334 352 3 65 70 39 321 315 298 295 295 286 283 278 269 271 272 269 267 267 276 275 261 256 266 256 224 192 163 151 191 244 189 139 146 182 216 211 198 187 157 150 152 136 133 152 160 147 144 186 209 195 199 166 182 182 193 238 150 149 228 213 188 189 189 196 202 200 199 200 199 200 205 208 210 213 216
327 324 322 321 319 321 324 324 324 328 332 338 345 351 302 358 338 315 308 273 291 296 283 276 269 265 271 273 269 256 236 235 254 252 249 244 215 200 184 147 156 187 197 188 177 164 196 239 209 183 162 136 119 140 137 125 139 152 137 145 200 201 176 217 199 160 162 177 186 134 114 331 177 187 211 207 210 211 206 206 206 204 205 208 210 212 213 215
327 325 322 320 318 318 324 325 324 331 335 335 335 330 292 322 312 319 312 262 282 292 283 279 269 266 272 276 272 236 216 221 229 242 247 230 196 192 188 164 155 177 196 195 185 182 230 255 174 151 160 156 140 144 144 133 151 182 171 157 173 187 188 202 158 141 112 32 116 110 55 320 195 188 217 213 214 219 213 210 212 213 213 213 213 213 215 216
328 325 321 320 317 316 323 327 324 328 331 334 333 209 331 327 315 322 320 278 285 285 288 290 262 265 278 280 260 223 215 224 226 233 239 224 203 188 183 178 170 192 198 180 175 206 246 247 147 145 173 171 150 158 170 158 155 198 210 179 171 178 180 148 131 131 125 243 223 130 109 289 230 200 209 202 207 216 212 208 213 216 217 216 215 215 217 218
328 326 322 320 317 316 322 329 320 326 336 349 12 313 326 321 316 320 330 29 312 275 287 283 236 285 322 221 207 201 211 238 233 230 227 222 212 197 183 174 169 194 180 162 166 214 236 210 146 149 173 172 169 187 196 168 145 195 222 186 170 161 152 146 143 142 157 212 215 171 185 266 287 225 210 198 204 213 212 212 215 216 216 215 214 216 217 218
327 327 322 318 318 319 322 326 321 327 340 335 299 310 312 313 317 318 343 21 314 260 230 244 236 328 329 208 178 165 177 255 232 223 213 210 205 195 195 194 153 183 162 138 203 224 200 195 167 156 163 169 180 199 207 164 140 214 216 169 156 147 155 161 155 164 178 143 145 178 175 254 281 248 204 190 205 219 220 222 218 215 215 214 215 217 217 217
326 326 321 315 316 318 316 317 319 328 335 316 293 293 305 311 307 325 72 16 286 266 222 246 275 321 331 184 182 184 222 221 190 214 206 200 196 187 192 199 164 174 176 149 211 249 187 192 190 166 164 184 196 203 186 157 156 229 194 150 149 153 164 167 166 183 164 113 192 228 162 182 263 276 193 181 201 222 224 224 220 214 214 213 214 217 218 218
324 324 320 313 311 311 308 309 314 322 328 321 298 296 311 306 275 88 92 240 287 312 231 269 334 335 49 150 191 213 253 246 200 195 191 191 197 191 193 204 173 166 196 170 196 247 222 201 192 167 172 200 212 214 169 162 195 215 147 108 92 108 138 159 169 165 103 127 214 219 184 198 259 273 175 174 204 223 225 225 220 215 213 213 214 216 217 218
321 321 319 311 308 308 303 302 307 311 310 306 300 304 312 283 147 99 151 232 287 276 250 306 344 343 83 103 218 237 247 270 288 159 169 179 192 196 198 200 180 155 204 183 185 232 264 236 189 169 187 188 192 210 175 176 182 139 112 85 65 55 64 82 75 95 98 196 236 211 191 197 250 260 185 182 207 213 217 224 221 214 213 213 215 215 216 216
318 319 316 310 308 306 301 302 307 303 297 299 304 310 304 173 110 120 204 235 283 270 304 312 295 18 41 50 272 241 221 261 280 136 147 156 175 186 163 181 183 156 209 226 217 268 280 256 228 204 193 169 160 188 198 198 174 127 107 106 110 31 34 43 9 52 127 239 251 218 192 192 237 254 213 213 219 211 209 218 214 207 209 212 214 215 215 214
317 316 313 308 303 298 296 302 302 292 291 300 308 312 158 156 166 189 222 313 302 241 74 261 278 1 350 347 284 234 201 225 246 147 147 140 153 184 175 178 182 176 222 227 234 286 260 233 256 267 215 168 150 158 202 244 155 132 122 113 137 251 14 116 262 102 182 238 251 187 161 189 244 249 237 232 236 226 218 221 215 205 205 208 212 213 213 213
316 315 311 306 301 296 295 297 287 280 284 284 291 321 101 149 229 209 218 269 245 212 75 243 282 329 333 340 298 246 217 217 226 191 158 146 154 201 210 202 175 169 194 195 194 232 267 263 244 243 250 192 165 160 178 211 166 155 151 141 155 168 166 212 233 18 217 253 286 147 155 203 269 260 242 233 235 229 226 228 224 214 207 207 210 211 210 211
315 317 312 307 305 299 295 286 274 272 272 257 255 32 123 197 236 218 218 233 256 329 350 300 318 326 331 273 267 258 307 261 208 155 146 133 151 206 234 241 187 161 137 157 188 184 200 248 218 204 233 195 179 179 164 150 160 181 166 148 163 163 170 207 201 185 207 240 324 115 158 192 208 248 242 234 238 231 230 236 235 231 219 210 210 209 208 209
317 318 314 312 310 298 287 273 263 264 246 210 163 139 187 205 233 225 226 235 281 330 314 331 350 334 318 285 282 51 81 286 242 133 156 153 167 200 200 209 200 162 140 179 218 175 194 242 243 229 219 175 182 191 149 131 162 209 151 132 185 185 162 184 189 180 176 149 124 173 209 216 211 277 290 286 274 240 229 235 235 233 223 205 204 207 207 208
317 319 319 319 313 297 281 258 255 253 212 172 137 211 211 204 199 195 207 196 156 333 330 342 17 302 308 311 319 25 45 311 329 76 197 183 192 203 196 210 197 176 171 184 212 170 184 250 263 238 228 200 187 180 162 166 180 181 151 178 212 173 141 155 223 165 126 180 246 194 235 283 311 298 293 287 284 263 234 226 224 220 206 194 199 204 205 207
323 327 329 329 319 310 291 262 257 229 187 163 169 219 206 222 209 200 232 55 34 357 41 14 319 210 271 310 304 340 10 343 340 0 267 223 222 203 201 228 194 185 191 186 207 209 167 254 267 205 223 237 200 185 202 196 164 134 183 199 175 111 107 124 191 26 80 224 264 195 204 236 167 283 298 278 245 255 246 225 219 205 189 194 202 203 205 208
328 330 336 341 330 319 296 273 247 195 174 164 215 219 198 229 215 203 247 293 25 36 79 182 246 239 217 262 285 319 9 341 324 359 286 250 258 208 192 211 196 193 199 192 211 232 166 244 284 213 210 228 182 184 245 238 188 148 181 176 140 146 202 139 171 187 162 216 264 280 248 232 197 226 278 253 230 237 240 226 208 187 188 200 205 203 204 207
330 332 347 8 1 358 334 261 187 170 164 163 214 216 206 228 238 232 247 277 160 158 200 224 227 263 242 214 252 292 18 273 269 322 242 224 256 224 189 202 214 202 195 187 193 207 167 207 272 244 210 188 139 179 219 230 223 76 113 152 145 163 177 179 169 169 186 205 227 274 285 252 228 218 214 224 229 229 226 217 208 201 201 205 204 201 202 204
336 335 340 7 22 29 24 67 158 162 170 188 196 212 213 225 254 248 244 253 209 191 223 221 214 245 248 241 264 267 204 223 231 221 228 224 251 261 214 198 226 214 196 190 190 189 171 193 232 275 266 187 192 204 207 209 193 142 157 177 181 130 135 186 182 138 155 175 179 204 239 254 247 211 198 219 229 222 212 211 216 213 208 207 204 200 201 204
345 341 299 326 314 338 358 13 169 181 238 208 204 236 242 236 264 264 257 244 223 233 233 219 223 233 248 278 275 261 233 231 217 210 240 233 224 263 229 195 192 193 182 190 203 201 189 183 205 245 240 202 232 232 210 201 179 166 183 183 176 162 133 184 240 235 127 162 175 183 217 257 247 200 199 218 221 215 210 207 214 217 211 207 204 203 205 207
347 311 299 310 284 291 325 340 221 219 204 222 259 249 248 259 247 263 272 252 219 229 227 222 226 225 240 247 230 233 237 229 222 214 224 231 213 221 235 216 207 193 162 188 213 199 178 154 186 221 227 221 238 240 207 195 179 174 191 188 178 171 155 180 220 229 184 195 149 141 205 261 256 205 204 221 220 218 216 210 216 222 213 204 202 205 209 210
329 305 312 309 282 286 310 320 272 249 225 264 288 283 268 264 227 240 273 260 228 228 221 219 213 212 230 223 207 214 215 216 224 210 210 243 221 219 242 247 241 216 172 199 217 194 172 151 178 221 265 259 257 270 271 169 162 186 217 196 180 191 191 189 191 177 186 200 154 145 238 264 274 250 229 242 237 225 221 215 218 223 213 202 202 205 208 211
315 306 308 342 328 291 207 218 267 244 266 282 287 287 271 258 249 247 242 220 219 225 232 241 222 215 227 220 212 216 206 212 240 235 237 243 232 242 255 261 258 218 189 208 192 174 191 193 158 179 238 249 258 276 270 237 174 200 224 196 189 191 183 168 112 145 206 210 171 174 227 249 271 306 324 250 219 221 229 220 216 214 206 201 202 205 209 210
320 308 298 327 348 245 195 110 55 241 309 318 292 285 270 259 249 243 238 226 229 230 235 255 242 232 236 234 235 232 211 200 229 283 265 243 266 270 271 282 271 213 224 223 190 165 185 198 163 177 202 216 217 224 232 217 187 219 213 184 190 180 169 163 120 162 220 226 172 174 209 247 278 299 289 224 198 208 231 223 216 211 205 203 203 205 208 210
324 308 299 324 341 275 177 67 52 25 350 352 307 270 243 249 262 257 249 232 236 236 230 247 249 248 251 245 249 253 238 217 218 257 261 249 268 259 295 308 282 251 270 241 192 156 155 194 185 191 199 210 211 214 216 171 160 209 209 189 192 183 175 169 150 179 197 174 185 211 198 208 252 252 237 235 211 208 213 204 205 205 204 205 206 207 209 210
296 291 333 335 334 341 58 51 41 27 317 320 308 269 263 261 275 280 253 230 255 255 233 238 228 220 229 227 235 244 235 228 228 241 249 247 253 278 315 304 267 336 348 262 181 146 86 201 201 201 205 214 214 210 201 173 179 200 199 194 194 187 178 175 187 199 165 148 223 246 197 188 224 225 220 229 222 215 216 205 204 203 202 204 206 208 209 210
260 305 355 353 314 319 17 350 350 335 292 292 269 257 287 276 269 297 277 292 313 294 238 257 237 225 231 232 243 240 220 222 235 236 235 232 249 312 323 300 246 17 16 22 175 151 135 207 209 203 215 224 222 212 191 179 198 198 192 199 197 188 182 186 202 197 160 172 228 225 180 192 220 221 216 219 210 203 207 207 207 205 203 203 202 203 207 210
272 290 322 339 313 290 299 306 310 303 288 287 261 250 291 281 276 317 313 316 314 268 213 247 271 274 278 277 276 254 220 206 224 233 225 217 223 16 327 303 277 6 34 32 237 171 166 224 208 190 220 236 230 222 193 187 212 216 206 206 194 190 190 196 209 198 180 204 221 189 184 205 218 213 214 219 215 208 202 197 198 204 203 199 199 201 206 210
326 299 316 334 314 289 292 293 291 298 297 280 254 275 325 301 306 343 316 265 264 276 193 206 274 296 301 290 262 238 230 211 216 228 210 192 209 175 195 258 273 336 12 20 308 70 189 245 207 158 216 245 235 228 208 198 213 225 230 227 200 188 194 204 223 208 192 222 226 174 186 222 235 218 215 224 213 197 183 181 190 200 201 197 197 202 207 211
322 287 291 316 306 285 294 298 293 304 294 271 263 350 348 322 329 337 304 236 226 244 231 247 300 308 307 297 260 240 278 289 257 264 258 233 249 216 176 205 282 341 342 332 279 306 203 243 278 120 193 251 229 219 218 208 211 230 241 238 219 198 193 200 207 185 188 212 207 146 182 231 244 224 203 201 183 181 192 193 192 197 198 196 198 204 209 211
337 310 278 297 296 287 303 310 302 279 269 307 9 357 323 300 312 323 302 259 245 244 253 312 322 313 305 299 291 323 321 309 293 291 286 278 291 292 243 273 307 300 293 303 306 263 163 174 184 143 196 261 237 209 208 189 194 241 244 231 221 209 202 209 199 188 191 179 160 178 215 230 222 186 183 192 181 190 213 208 197 194 195 198 203 207 209 209